[[{"header":{"parameterUnit":"m.s-1","parameterCategory":1,"la1":30.2992,"la2":30.254,"lo1":-89.0895,"lo2":-89.0443,"dy":0.0025,"dx":0.0025,"nx":19,"ny":19,"refTime":"2026-05-01T21:00:00:Z","depth":0,"parameterNumber":2,"parameterNumberName":"U-component_of_WINDS"},"data":[0,0,0,1.1411,1.1413,1.1532,1.1532,1.1673,1.1674,0,0,0,0,0,0,0,0,0,0,0,1.1367,1.1367,1.1411,1.1414,1.1532,1.1532,1.1672,1.1674,0,0,0,0,0,0,0,0,0,0,0,1.1367,1.1367,1.1368,1.1414,1.1532,1.1532,1.1672,1.1587,0,0,0,0,0,0,0,0,0,0,1.1475,1.1424,1.1367,1.1368,1.1415,1.1531,1.1532,1.1584,1.1593,1.1614,0,1.1628,0,1.1653,1.1682,1.1683,0,0,0,1.1421,1.1416,1.1456,1.1368,1.1416,1.1531,1.148,1.1589,1.1599,1.1626,1.163,1.1635,1.1655,1.1683,1.1684,1.1775,1.1775,0,0,1.1414,1.1384,1.1449,1.1463,1.1441,1.1477,1.1484,1.1595,1.1598,1.163,1.1639,1.1657,1.1684,1.1685,1.1775,1.1775,0,0,0,1.1391,1.1379,1.1416,1.1456,1.1478,1.148,1.1488,1.1594,1.1608,1.164,1.1659,1.1685,1.1686,1.1775,1.1775,1.1748,0,0,0,1.1387,1.1365,1.1413,1.1396,1.1476,1.1537,1.1484,1.1601,1.1614,1.1658,1.1685,1.1687,1.1775,1.1775,1.1748,1.174,0,0,0,1.1362,1.1362,1.1376,1.1394,1.1443,1.1536,1.1557,1.1604,1.1625,1.1683,1.1688,1.1775,1.1775,1.1749,1.1741,1.1755,0,0,0,1.1327,1.1351,1.1375,1.1409,1.1442,1.1518,1.1557,1.1616,1.1662,1.1685,1.1775,1.1775,1.1749,1.1742,1.1756,1.1761,1.176,0,0,1.134,1.1351,1.1374,1.1399,1.1462,1.1502,1.1563,1.1635,1.167,1.1739,1.1741,1.1748,1.1741,1.1755,1.1768,1.1767,0,0,0,1.1367,1.1383,1.1407,1.1448,1.1503,1.1551,1.1617,1.1644,1.1703,1.1698,1.1758,1.1755,1.1765,1.1769,1.1768,1.1779,1.1775,1.1775,1.1775,1.134,1.1383,1.1423,1.148,1.152,1.1589,1.1626,1.1675,1.1707,1.172,1.174,1.1743,1.1746,1.1746,1.1756,1.1747,1.1747,1.1747,1.1747,1.1362,1.1391,1.1433,1.1487,1.1532,1.1579,1.1647,1.1668,1.172,1.1731,1.1741,1.1749,1.1743,1.1755,1.1745,1.1746,1.1746,1.1746,1.1746,1.1349,1.137,1.1402,1.1468,1.1514,1.1573,1.162,1.166,1.1699,1.171,1.1736,1.1737,1.1742,1.1719,1.1719,1.1719,1.172,1.172,1.172,1.1322,1.1359,1.1393,1.1454,1.1487,1.1535,1.1606,1.164,1.1689,1.1715,1.1716,1.1746,1.1735,1.1731,1.172,1.172,1.172,1.172,1.172,1.1327,1.1333,1.1384,1.1417,1.1494,1.1538,1.1589,1.1656,1.1691,1.1713,1.1743,1.1728,1.1742,1.1743,1.174,1.1733,1.1733,1.1733,1.1733,1.1315,1.1327,1.1389,1.1439,1.1494,1.1546,1.1606,1.1662,1.1721,1.1746,1.1753,1.1753,1.1752,1.1768,1.1768,1.1766,1.1765,1.1765,1.1765,1.1321,1.134,1.1381,1.1438,1.1501,1.1555,1.1613,1.1671,1.174,1.1768,1.1766,1.1765,1.1765,1.1763,1.1788,1.1788,1.1785,0,0]},{"header":{"parameterUnit":"m.s-1","parameterCategory":1,"la1":30.2992,"la2":30.254,"lo1":-89.0895,"lo2":-89.0443,"dy":0.0025,"dx":0.0025,"nx":19,"ny":19,"refTime":"2026-05-01T21:00:00:Z","depth":0,"parameterNumber":3,"parameterNumberName":"V-component_of_WINDS"},"data":[0,0,0,-1.281,-1.2811,-1.2849,-1.285,-1.2877,-1.2877,0,0,0,0,0,0,0,0,0,0,0,-1.2784,-1.2784,-1.281,-1.2811,-1.2849,-1.285,-1.2877,-1.2877,0,0,0,0,0,0,0,0,0,0,0,-1.2784,-1.2784,-1.2784,-1.2811,-1.2849,-1.285,-1.2877,-1.2856,0,0,0,0,0,0,0,0,0,0,-1.2822,-1.2784,-1.2784,-1.2784,-1.2811,-1.2849,-1.285,-1.2855,-1.2857,-1.2849,0,-1.2838,0,-1.2858,-1.2877,-1.2877,0,0,0,-1.2821,-1.2782,-1.2805,-1.2784,-1.2811,-1.2849,-1.2835,-1.2856,-1.2858,-1.2852,-1.2839,-1.284,-1.2858,-1.2877,-1.2877,-1.2798,-1.2797,0,0,-1.2819,-1.2783,-1.2804,-1.2806,-1.2798,-1.2834,-1.2836,-1.2858,-1.2841,-1.2839,-1.2842,-1.2859,-1.2877,-1.2877,-1.2799,-1.2797,0,0,0,-1.2806,-1.2781,-1.2805,-1.2804,-1.2813,-1.2834,-1.2837,-1.2841,-1.2851,-1.2842,-1.2859,-1.2877,-1.2877,-1.28,-1.2798,-1.272,0,0,0,-1.2805,-1.2774,-1.2803,-1.2782,-1.2812,-1.2827,-1.2819,-1.285,-1.2853,-1.2859,-1.2877,-1.2877,-1.2801,-1.2799,-1.2724,-1.2688,0,0,0,-1.2787,-1.2772,-1.2772,-1.278,-1.2795,-1.2828,-1.284,-1.2851,-1.2863,-1.2877,-1.2877,-1.2801,-1.2799,-1.2728,-1.2694,-1.2657,0,0,0,-1.2756,-1.2701,-1.277,-1.2716,-1.2794,-1.2779,-1.284,-1.283,-1.2833,-1.2877,-1.28,-1.2798,-1.2729,-1.2698,-1.266,-1.2618,-1.2597,0,0,-1.2666,-1.2689,-1.266,-1.2723,-1.2686,-1.2776,-1.2728,-1.2764,-1.2798,-1.2796,-1.2795,-1.2722,-1.2695,-1.2657,-1.2493,-1.2476,0,0,0,-1.2619,-1.2597,-1.2596,-1.2597,-1.2624,-1.2644,-1.2692,-1.2706,-1.2707,-1.279,-1.27,-1.2685,-1.2665,-1.2646,-1.2631,-1.2616,-1.2788,-1.2789,-1.2789,-1.2438,-1.2487,-1.2442,-1.2495,-1.2496,-1.2547,-1.2552,-1.258,-1.2627,-1.2606,-1.2605,-1.2499,-1.2476,-1.2465,-1.2449,-1.2587,-1.2587,-1.2587,-1.2586,-1.2311,-1.2288,-1.2355,-1.2335,-1.2387,-1.2371,-1.242,-1.2455,-1.2448,-1.2503,-1.2488,-1.2543,-1.2445,-1.2433,-1.2581,-1.2582,-1.2583,-1.2583,-1.2583,-1.2197,-1.2194,-1.2213,-1.2221,-1.2223,-1.228,-1.2271,-1.2319,-1.2364,-1.2348,-1.2353,-1.2355,-1.2362,-1.2348,-1.2347,-1.2347,-1.2347,-1.2346,-1.2346,-1.207,-1.2094,-1.2081,-1.2107,-1.2115,-1.2132,-1.2186,-1.2196,-1.2219,-1.2254,-1.2255,-1.2304,-1.2427,-1.2456,-1.2341,-1.2342,-1.2342,-1.2343,-1.2343,-1.192,-1.1963,-1.1941,-1.195,-1.1986,-1.1985,-1.2047,-1.2064,-1.2079,-1.2074,-1.2128,-1.2211,-1.2237,-1.2249,-1.2274,-1.2118,-1.2118,-1.2118,-1.2118,-1.1823,-1.1842,-1.1832,-1.1843,-1.1859,-1.1914,-1.1891,-1.1933,-1.1983,-1.1996,-1.2026,-1.2064,-1.2074,-1.2094,-1.2109,-1.2132,-1.1944,-1.1944,-1.1944,-1.1733,-1.1757,-1.1726,-1.1776,-1.1809,-1.1836,-1.1816,-1.1827,-1.1893,-1.1938,-1.2007,-1.2015,-1.2075,-1.2093,-1.2136,-1.2159,-1.2203,0,0]}]]